Location: Sungai Dangang
(2.7500°N, 113.8333°E)
Time: 18:34:08
(UTC+00:00)

Cosmos 1953 Rocket - Pass Details

Date: 16 May 2021
Orbit: 605 x 634 km, 82.5° (Epoch: 19 June)

Event Time Altitude Azimuth Distance (km) Brightness Sun altitude
Exits shadow 21:35:34 - 207° (SSW) 2,475 6.2 -9.8°
Reaches altitude 10° 21:36:55 10° 214° (SW) 1,988 5.7 -9.5°
Maximum altitude 21:40:42 28° 274° (W) 1,153 4.5 -8.6°
Drops below altitude 10° 21:44:28 10° 334° (NNW) 1,965 6.1 -7.7°
Sets 21:46:54 0° 345° (NNW) 2,862 7.0 -7.1°
